Simultaneous Nadir Overpasses (SNOs) Predictions

Prediction of SNOs between GOES-17 and METOP-B Satellite Orbit:

Table of predicted SNOs for the next 14.0 days since TLE Epoch: 3/9/2024
Index Date Time (GOES-17) GOES-17 Lat,Lon METOP-B Lat,Lon Distance(km) Time Diff (sec)
1 03/09/2024 16:21:41 -0.00,-104.70 -0.18,-103.88 92.46 80
2 03/11/2024 04:40:42 0.01,-104.70 -0.84,-108.49 432.93 80
3 03/12/2024 04:17:24 0.01,-104.70 0.29,-103.51 135.57 80
4 03/13/2024 16:36:16 -0.01,-104.71 0.76,-108.08 384.80 80
5 03/14/2024 16:18:18 -0.01,-104.71 -0.38,-103.10 183.86 80
6 03/16/2024 04:37:18 0.00,-104.71 -0.69,-107.70 341.39 80
7 03/17/2024 04:13:59 0.01,-104.71 0.45,-102.72 227.01 80
8 03/18/2024 16:32:52 -0.00,-104.72 0.58,-107.29 293.66 80
9 03/19/2024 16:14:53 -0.01,-104.72 -0.56,-102.31 275.08 80
10 03/21/2024 04:33:54 0.01,-104.73 -0.49,-106.91 249.52 80
11 03/22/2024 04:10:35 0.01,-104.73 0.66,-101.93 319.26 80
